Location: Manosque
(43.8357°N, 5.7909°E)
Time: 15:21:06
(UTC+02:00)

Tiangong 1 - Pass Details

Date: 01 April 2018
Orbit: 144 x 152 km, 42.7° (Epoch: 01 April)

Event Time Altitude Azimuth Distance (km) Brightness Sun altitude
Rises 08:13:48 0° 266° (W) 1,440 3.3 9.1°
Reaches altitude 10° 08:15:29 10° 262° (W) 709 1.8 9.4°
Maximum altitude 08:17:01 56° 181° (S) 193 -0.3 9.7°
Drops below altitude 10° 08:18:34 10° 99° (E) 712 5.4 10.0°
Sets 08:20:19 0° 95° (E) 1,466 6.4 10.3°
